This is the latest recevied weather packets stored in our database for station/object K1RTA-1. If no packets are shown the sender has not sent any weather packets the latest 10 day(s).
| Time | Temp. | Humidity | Pressure | Rain* | Wind** | Luminosity | Snow |
|---|---|---|---|---|---|---|---|
| 1777850486 | 10.56° C | 65% | 1008.6 hPa | 0 mm | - | - | - |
| 1777849587 | 10.56° C | 66% | 1008.3 hPa | 0 mm | - | - | - |
| 1777848687 | 10.56° C | 67% | 1008.1 hPa | 0 mm | - | - | - |
| 1777847788 | 11.11° C | 67% | 1007.9 hPa | 0 mm | - | - | - |
| 1777846888 | 11.11° C | 65% | 1007.7 hPa | 0 mm | - | - | - |
| 1777845986 | 11.11° C | 63% | 1007.5 hPa | 0 mm | - | - | - |
| 1777845088 | 11.67° C | 63% | 1007.3 hPa | 0 mm | - | - | - |
| 1777844187 | 11.67° C | 64% | 1007.2 hPa | 0 mm | - | - | - |
| 1777843287 | 11.11° C | 65% | 1007 hPa | 0 mm | - | - | - |
| 1777842388 | 11.67° C | 65% | 1006.8 hPa | 0 mm | - | - | - |
| 1777841487 | 11.11° C | 68% | 1006.6 hPa | 0 mm | - | - | - |
| 1777840587 | 10.56° C | 67% | 1006.6 hPa | 0 mm | - | - | - |
| 1777839687 | 10.56° C | 68% | 1006.4 hPa | 0 mm | - | - | - |
| 1777838787 | 10° C | 68% | 1006.4 hPa | 0 mm | - | - | - |
| 1777837888 | 9.44° C | 71% | 1006.4 hPa | 0 mm | - | - | - |
| 1777836988 | 9.44° C | 73% | 1006.3 hPa | 0 mm | - | - | - |
| 1777836088 | 9.44° C | 78% | 1006.5 hPa | 0 mm | - | - | - |
| 1777835188 | 9.44° C | 75% | 1006.5 hPa | 0 mm | - | - | - |
| 1777834288 | 9.44° C | 79% | 1006.5 hPa | 0 mm | - | - | - |
| 1777833387 | 8.33° C | 84% | 1006.4 hPa | 0 mm | - | - | - |
| 1777832487 | 8.89° C | 84% | 1006.4 hPa | 0 mm | - | - | - |
| 1777831588 | 8.33° C | 85% | 1006.2 hPa | 0 mm | - | - | - |
| 1777830687 | 8.33° C | 84% | 1006.1 hPa | 0 mm | - | - | - |
| 1777829788 | 8.33° C | 85% | 1006.1 hPa | 0 mm | - | - | - |
| 1777828888 | 8.33° C | 85% | 1006 hPa | 0 mm | - | - | - |
* Rain latest hour (hover to see other rain measurements)
** Current wind speed in m/s (hover to see current wind gust speed)